This demonstration page uses our WeatherBlox Daily Observations layout. Learn more.

Hourly Observations for October 2, 2016

Temp ( °F °C ) Dew Point ( °F °C ) Humidity (%) Winds ( mph kmh ) Pressure ( in mb ) Visibility ( mi km ) Precip ( " mm )
12:15 am 00:15 Clear 54 12.1 45 7.3 73 73 SE 8 13 30.09 1019 10 16.09344 0 0
12:35 am 00:35 Clear 53 11.6 45 7.2 75 75 SSE 7 11 30.09 1019 10 16.09344 0 0
12:55 am 00:55 Clear 52 11.3 45 7.3 77 77 SSE 7 11 30.06 1018 10 16.09344 0 0
1:15 am 01:15 Clear 51 10.8 46 7.5 80 80 SE 8 13 30.09 1019 10 16.09344 0 0
1:35 am 01:35 Clear 51 10.6 45 7.4 81 81 SE 7 11 30.06 1018 10 16.09344 0 0
1:55 am 01:55 Clear 50 9.8 45 7.2 84 84 SE 6 9 30.06 1018 10 16.09344 0 0
2:15 am 02:15 Clear 49 9.7 45 7.4 86 86 SE 6 9 30.09 1019 10 16.09344 0 0
2:35 am 02:35 Clear 50 9.9 46 7.7 86 86 SE 6 9 30.06 1018 10 16.09344 0 0
2:55 am 02:55 Clear 49 9.3 46 7.5 89 89 SE 6 9 30.09 1019 10 16.09344 0 0
3:15 am 03:15 Clear 49 9.7 46 7.9 89 89 SE 6 9 30.09 1019 10 16.09344 0 0
3:35 am 03:35 Clear 50 10 47 8.2 89 89 SE 7 11 30.06 1018 10 16.09344 0 0
3:55 am 03:55 Clear 49 9.2 46 7.7 90 90 SE 6 9 30.09 1019 10 16.09344 0 0
4:15 am 04:15 Clear 48 9 46 7.6 91 91 SE 5 7 30.09 1019 10 16.09344 0 0
4:35 am 04:35 Clear 47 8.3 45 7.2 93 93 E 3 6 30.09 1019 10 16.09344 0 0
4:55 am 04:55 Clear 46 7.8 44 6.8 93 93 ESE 3 6 30.09 1019 10 16.09344 0 0
5:15 am 05:15 Clear 46 8 45 7 93 93 ESE 3 6 30.09 1019 10 16.09344 0 0
5:35 am 05:35 Clear 46 7.9 44 6.9 93 93 SE 3 6 30.09 1019 10 16.09344 0 0
5:55 am 05:55 Clear 46 7.5 44 6.6 94 94 SE 3 6 30.09 1019 10 16.09344 0 0
6:15 am 06:15 Clear 46 7.5 44 6.5 93 93 ESE 5 7 30.09 1019 10 16.09344 0 0
6:35 am 06:35 Clear 46 7.6 44 6.8 95 95 ESE 7 11 30.09 1019 10 16.09344 0 0
6:55 am 06:55 Clear 47 8.2 46 7.5 95 95 ESE 3 6 30.09 1019 10 16.09344 0 0
7:15 am 07:15 Clear 46 8 45 7.1 94 94 ESE 5 7 30.09 1019 7 11.265408 0 0
7:35 am 07:35 Clear 46 8 45 7.1 94 94 ESE 3 6 30.09 1019 10 16.09344 0 0
7:55 am 07:55 Sunny 47 8.5 46 7.8 95 95 Calm 30.09 1019 7 11.265408 0 0
8:15 am 08:15 Sunny 49 9.4 48 8.7 95 95 Calm 30.09 1019 10 16.09344 0 0
8:35 am 08:35 Sunny 51 10.7 50 10 95 95 SE 5 7 30.06 1018 10 16.09344 0 0
8:55 am 08:55 Sunny 54 12.1 51 10.5 90 90 SE 7 11 30.06 1018 10 16.09344 0 0
9:15 am 09:15 Sunny 56 13.5 51 10.8 84 84 SE 9 15 30.03 1017 10 16.09344 0 0
9:35 am 09:35 Sunny 58 14.5 51 10.8 79 79 SSE 12 19 30.03 1017 10 16.09344 0 0
9:55 am 09:55 Sunny 60 15.6 52 10.9 74 74 SSE 9 15 30.06 1018 10 16.09344 0 0
10:15 am 10:15 Sunny 63 17.1 52 10.9 67 67 SSE 12 19 30.03 1017 10 16.09344 0 0
10:35 am 10:35 Sunny 65 18.1 51 10.6 62 62 SSE 13 20 30.03 1017 10 16.09344 0 0
10:55 am 10:55 Sunny 67 19.4 51 10.7 57 57 S 10 17 30.03 1017 10 16.09344 0 0
11:15 am 11:15 Sunny 68 20 52 10.9 56 56 S 10 17 30.03 1017 10 16.09344 0 0
11:35 am 11:35 Sunny 69 20.8 52 11.1 54 54 S 9 15 30 1016 10 16.09344 0 0
11:55 am 11:55 Sunny 71 21.4 52 11 52 52 SSE 12 19 30 1016 10 16.09344 0 0
12:15 pm 12:15 Sunny 72 22 52 11 50 50 S 9 15 29.97 1015 10 16.09344 0 0
12:35 pm 12:35 Sunny 73 22.9 52 10.9 47 47 S 12 19 29.97 1015 10 16.09344 0 0
12:55 pm 12:55 Sunny 74 23.6 52 11 45 45 S 14 22 29.97 1015 10 16.09344 0 0
1:15 pm 13:15 Sunny 75 23.7 51 10.6 44 44 S 16 26 29.94 1014 10 16.09344 0 0
1:35 pm 13:35 Sunny 76 24.3 52 10.9 43 43 SSE 13 20 29.94 1014 10 16.09344 0 0
1:55 pm 13:55 Sunny 77 25.1 52 11.1 42 42 SSE 13 20 29.94 1014 10 16.09344 0 0
2:15 pm 14:15 Sunny 78 25.3 52 11.1 41 41 S 15 24 29.91 1013 10 16.09344 0 0
2:35 pm 14:35 Sunny 77 25.2 52 11.2 42 42 S 12 19 29.91 1013 10 16.09344 0 0
2:55 pm 14:55 Sunny 79 25.9 52 11.3 40 40 SSE 15 24 29.91 1013 10 16.09344 0 0
3:15 pm 15:15 Sunny 79 25.9 52 11.2 40 40 SSE 14 22 29.91 1013 10 16.09344 0 0
3:35 pm 15:35 Sunny 78 25.7 52 11.3 41 41 S 12 19 29.88 1012 10 16.09344 0 0
3:55 pm 15:55 Sunny 78 25.8 53 11.6 41 41 SSE 16 26 29.88 1012 10 16.09344 0 0
4:15 pm 16:15 Sunny 78 25.7 53 11.7 42 42 SSE 15 24 29.88 1012 10 16.09344 0 0
4:35 pm 16:35 Sunny 78 25.8 53 11.8 42 42 SSE 13 20 29.88 1012 10 16.09344 0 0
4:55 pm 16:55 Sunny 78 25.7 53 11.8 42 42 SSE 16 26 29.88 1012 10 16.09344 0 0
5:15 pm 17:15 Sunny 78 25.6 54 12 43 43 SSE 15 24 29.88 1012 10 16.09344 0 0
5:35 pm 17:35 Sunny 77 25.2 54 12 44 44 SSE 14 22 29.88 1012 10 16.09344 0 0
5:55 pm 17:55 Sunny 77 25.2 54 12.1 44 44 SSE 14 22 29.88 1012 10 16.09344 0 0
6:15 pm 18:15 Sunny 76 24.7 54 12.3 46 46 SSE 14 22 29.88 1012 10 16.09344 0 0
6:35 pm 18:35 Sunny 76 24.2 54 12.3 47 47 SSE 10 17 29.88 1012 10 16.09344 0 0
6:55 pm 18:55 Sunny 74 23.3 55 12.5 51 51 SE 8 13 29.88 1012 10 16.09344 0 0
7:15 pm 19:15 Sunny 72 22.2 55 12.5 54 54 SE 9 15 29.91 1013 10 16.09344 0 0
7:35 pm 19:35 Clear 70 20.9 55 12.5 59 59 SE 8 13 29.91 1013 10 16.09344 0 0
7:55 pm 19:55 Clear 68 20 55 12.5 62 62 SE 8 13 29.91 1013 10 16.09344 0 0
8:15 pm 20:15 Clear 67 19.3 55 12.5 65 65 SE 8 13 29.94 1014 10 16.09344 0 0
8:35 pm 20:35 Clear 66 19 55 12.5 66 66 SE 8 13 29.94 1014 10 16.09344 0 0
8:55 pm 20:55 Clear 65 18.6 55 12.5 68 68 SE 8 13 29.94 1014 10 16.09344 0 0
9:15 pm 21:15 Clear 65 18.3 54 12.3 68 68 SE 9 15 29.94 1014 10 16.09344 0 0
9:35 pm 21:35 Clear 64 17.8 54 12.3 70 70 SE 9 15 29.94 1014 10 16.09344 0 0
9:55 pm 21:55 Clear 64 17.9 54 12.2 69 69 SE 9 15 29.94 1014 10 16.09344 0 0
10:15 pm 22:15 Partly Cloudy 64 17.5 54 12.2 71 71 SE 8 13 29.94 1014 10 16.09344 0 0
10:35 pm 22:35 Clear 64 17.5 54 12.1 71 71 SE 9 15 29.94 1014 10 16.09344 0 0
10:55 pm 22:55 Clear 64 17.6 54 12 70 70 SE 10 17 29.94 1014 10 16.09344 0 0
11:15 pm 23:15 Clear 64 17.5 54 12 70 70 SE 12 19 29.94 1014 10 16.09344 0 0
11:35 pm 23:35 Clear 63 17.3 53 11.8 70 70 SE 12 19 29.94 1014 10 16.09344 0 0
11:55 pm 23:55 Partly Cloudy 63 17 54 12 73 73 SE 10 17 29.94 1014 10 16.09344 0 0

Powered by AerisWeather